| time (UTC) | temp C | wind direction | speed KPH | gust KPH | rain 1hr cm | rain 24hr cm | rain mn cm | humidity % | barometer mb |
| 20260506215404 | 11 | 34 | 0.0 | 0.0 | 0.00 | 0.15 | 0.15 | 93 | 1013.5 |
| 20260506214904 | 11 | 34 | 0.0 | 0.0 | 0.00 | 0.15 | 0.15 | 93 | 1013.5 |
| 20260506214404 | 11 | 35 | 0.0 | 0.0 | 0.00 | 0.15 | 0.15 | 93 | 1013.5 |
| 20260506213904 | 11 | 34 | 0.0 | 0.0 | 0.00 | 0.15 | 0.15 | 92 | 1013.5 |
| 20260506213404 | 12 | 34 | 0.0 | 0.0 | 0.00 | 0.15 | 0.15 | 92 | 1013.6 |
| 20260506212404 | 12 | 32 | 0.0 | 0.0 | 0.00 | 0.15 | 0.15 | 92 | 1013.5 |
| 20260506210404 | 12 | 29 | 1.6 | 4.8 | 0.00 | 0.15 | 0.15 | 92 | 1013.5 |
| 20260506205904 | 12 | 28 | 1.6 | 4.8 | 0.00 | 0.15 | 0.15 | 91 | 1013.5 |
| 20260506205404 | 12 | 28 | 0.0 | 3.2 | 0.00 | 0.15 | 0.15 | 91 | 1013.5 |
| 20260506204904 | 12 | 27 | 3.2 | 8.0 | 0.00 | 0.15 | 0.15 | 91 | 1013.5 |
| 20260506204404 | 12 | 36 | 1.6 | 4.8 | 0.00 | 0.15 | 0.15 | 91 | 1013.5 |
| 20260506203904 | 12 | 36 | 1.6 | 4.8 | 0.00 | 0.15 | 0.15 | 91 | 1013.5 |
| 20260506203404 | 12 | 37 | 4.8 | 8.0 | 0.00 | 0.15 | 0.15 | 91 | 1013.5 |
| 20260506202904 | 12 | 49 | 4.8 | 8.0 | 0.00 | 0.15 | 0.15 | 91 | 1013.5 |
| 20260506202404 | 12 | 10 | 1.6 | 12.9 | 0.00 | 0.15 | 0.15 | 91 | 1013.5 |
| 20260506201904 | 12 | 22 | 6.4 | 9.7 | 0.00 | 0.15 | 0.15 | 91 | 1013.5 |
| 20260506201404 | 12 | 26 | 3.2 | 9.7 | 0.00 | 0.15 | 0.15 | 91 | 1013.4 |
| 20260506200904 | 12 | 355 | 4.8 | 9.7 | 0.00 | 0.15 | 0.15 | 91 | 1013.3 |
| 20260506200404 | 12 | 29 | 1.6 | 12.9 | 0.00 | 0.15 | 0.15 | 92 | 1013.3 |
| 20260506195905 | 12 | 20 | 9.7 | 12.9 | 0.00 | 0.15 | 0.15 | 92 | 1013.4 |
| 20260506195404 | 12 | 51 | 9.7 | 11.3 | 0.00 | 0.15 | 0.15 | 92 | 1013.3 |
| 20260506194404 | 12 | 35 | 11.3 | 16.1 | 0.00 | 0.15 | 0.15 | 92 | 1013.2 |
| 20260506193904 | 12 | 30 | 6.4 | 14.5 | 0.00 | 0.15 | 0.15 | 91 | 1013.2 |
| 20260506193404 | 12 | 47 | 8.0 | 14.5 | 0.00 | 0.15 | 0.15 | 91 | 1013.1 |
| 20260506192904 | 12 | 22 | 1.6 | 4.8 | 0.00 | 0.15 | 0.15 | 91 | 1013.2 |
| 20260506192404 | 12 | 25 | 6.4 | 14.5 | 0.00 | 0.15 | 0.15 | 90 | 1013.2 |
| 20260506191904 | 12 | 9 | 4.8 | 14.5 | 0.00 | 0.15 | 0.15 | 90 | 1013.1 |
| 20260506191404 | 12 | 31 | 4.8 | 9.7 | 0.00 | 0.15 | 0.15 | 89 | 1013.1 |
| 20260506190904 | 12 | 1 | 4.8 | 14.5 | 0.00 | 0.15 | 0.15 | 89 | 1013.0 |
| 20260506190404 | 12 | 40 | 3.2 | 9.7 | 0.00 | 0.15 | 0.15 | 89 | 1013.1 |
| 20260506185904 | 12 | 21 | 3.2 | 14.5 | 0.00 | 0.15 | 0.15 | 88 | 1013.1 |
| 20260506185404 | 12 | 16 | 4.8 | 14.5 | 0.00 | 0.15 | 0.15 | 88 | 1013.1 |
| 20260506184904 | 12 | 50 | 1.6 | 4.8 | 0.00 | 0.15 | 0.15 | 88 | 1013.1 |
| 20260506184404 | 12 | 328 | 4.8 | 9.7 | 0.00 | 0.15 | 0.15 | 88 | 1013.1 |
| 20260506183905 | 12 | 5 | 1.6 | 4.8 | 0.00 | 0.15 | 0.15 | 88 | 1013.0 |
| 20260506183404 | 12 | 5 | 1.6 | 4.8 | 0.00 | 0.15 | 0.15 | 87 | 1013.0 |
| 20260506182904 | 13 | 4 | 4.8 | 12.9 | 0.00 | 0.15 | 0.15 | 87 | 1012.9 |
| 20260506182404 | 13 | 32 | 4.8 | 9.7 | 0.00 | 0.15 | 0.15 | 87 | 1013.0 |
| 20260506181904 | 12 | 331 | 4.8 | 11.3 | 0.00 | 0.15 | 0.15 | 86 | 1013.0 |
| 20260506181404 | 12 | 15 | 12.9 | 19.3 | 0.00 | 0.15 | 0.15 | 86 | 1013.0 |
| 20260506180404 | 13 | 19 | 11.3 | 22.5 | 0.00 | 0.15 | 0.15 | 85 | 1012.9 |
| 20260506175404 | 13 | 16 | 11.3 | 19.3 | 0.00 | 0.15 | 0.15 | 85 | 1012.9 |
| 20260506174904 | 13 | 322 | 14.5 | 20.9 | 0.00 | 0.15 | 0.15 | 85 | 1013.0 |
| 20260506174404 | 13 | 15 | 11.3 | 19.3 | 0.00 | 0.15 | 0.15 | 85 | 1013.0 |
| 20260506173404 | 13 | 355 | 17.7 | 20.9 | 0.00 | 0.15 | 0.15 | 84 | 1013.0 |
| 20260506172404 | 13 | 336 | 16.1 | 24.1 | 0.00 | 0.15 | 0.15 | 83 | 1013.0 |
| 20260506171904 | 13 | 335 | 12.9 | 20.9 | 0.00 | 0.15 | 0.15 | 82 | 1013.0 |
| 20260506171404 | 13 | 358 | 16.1 | 22.5 | 0.00 | 0.15 | 0.15 | 81 | 1013.0 |
| 20260506170904 | 13 | 2 | 11.3 | 19.3 | 0.00 | 0.15 | 0.15 | 80 | 1012.9 |
| 20260506170404 | 13 | 355 | 8.0 | 19.3 | 0.00 | 0.15 | 0.15 | 81 | 1012.9 |
| 20260506165904 | 13 | 0 | 9.7 | 19.3 | 0.00 | 0.15 | 0.15 | 80 | 1012.9 |
| 20260506165404 | 13 | 316 | 8.0 | 19.3 | 0.00 | 0.15 | 0.15 | 81 | 1012.8 |
| 20260506164404 | 13 | 353 | 14.5 | 20.9 | 0.00 | 0.15 | 0.15 | 80 | 1012.9 |
| 20260506163903 | 13 | 337 | 8.0 | 19.3 | 0.00 | 0.15 | 0.15 | 79 | 1012.8 |
| 20260506163404 | 14 | 28 | 8.0 | 16.1 | 0.00 | 0.15 | 0.15 | 78 | 1012.9 |
| 20260506162904 | 13 | 16 | 9.7 | 20.9 | 0.00 | 0.15 | 0.15 | 78 | 1012.8 |
| 20260506162404 | 13 | 15 | 14.5 | 22.5 | 0.00 | 0.15 | 0.15 | 78 | 1012.8 |
| 20260506161904 | 13 | 4 | 6.4 | 20.9 | 0.00 | 0.15 | 0.15 | 79 | 1012.8 |
| 20260506161405 | 13 | 15 | 14.5 | 20.9 | 0.00 | 0.15 | 0.15 | 80 | 1012.7 |
| 20260506160904 | 14 | 47 | 11.3 | 20.9 | 0.00 | 0.15 | 0.15 | 80 | 1012.7 |
| 20260506155404 | 14 | 12 | 4.8 | 14.5 | 0.00 | 0.15 | 0.15 | 82 | 1012.7 |
| 20260506154904 | 14 | 9 | 9.7 | 19.3 | 0.00 | 0.15 | 0.15 | 82 | 1012.8 |
| 20260506154404 | 14 | 8 | 12.9 | 20.9 | 0.00 | 0.15 | 0.15 | 83 | 1012.8 |
| 20260506153904 | 14 | 15 | 6.4 | 16.1 | 0.00 | 0.15 | 0.15 | 84 | 1012.8 |
| 20260506153404 | 14 | 337 | 12.9 | 20.9 | 0.00 | 0.15 | 0.15 | 84 | 1012.9 |
| 20260506152905 | 13 | 18 | 14.5 | 20.9 | 0.00 | 0.15 | 0.15 | 84 | 1012.9 |
| 20260506152404 | 13 | 33 | 14.5 | 22.5 | 0.00 | 0.15 | 0.15 | 83 | 1013.0 |
| 20260506151404 | 14 | 31 | 11.3 | 20.9 | 0.03 | 0.15 | 0.15 | 83 | 1013.1 |
| 20260506150404 | 13 | 3 | 8.0 | 19.3 | 0.05 | 0.15 | 0.15 | 85 | 1013.1 |
| 20260506145904 | 13 | 38 | 8.0 | 19.3 | 0.05 | 0.15 | 0.15 | 85 | 1013.2 |
| 20260506145404 | 13 | 25 | 9.7 | 19.3 | 0.08 | 0.15 | 0.15 | 85 | 1013.2 |
| 20260506144903 | 13 | 14 | 11.3 | 20.9 | 0.10 | 0.15 | 0.15 | 86 | 1013.2 |
| 20260506144403 | 13 | 29 | 4.8 | 14.5 | 0.10 | 0.15 | 0.15 | 86 | 1013.3 |
| 20260506143903 | 13 | 5 | 6.4 | 20.9 | 0.10 | 0.15 | 0.15 | 85 | 1013.2 |
| 20260506142903 | 13 | 10 | 4.8 | 14.5 | 0.10 | 0.15 | 0.15 | 88 | 1013.3 |
| 20260506142402 | 13 | 43 | 1.6 | 4.8 | 0.10 | 0.15 | 0.15 | 87 | 1013.3 |
| 20260506141903 | 13 | 354 | 1.6 | 9.7 | 0.10 | 0.15 | 0.15 | 86 | 1013.4 |
| 20260506141403 | 13 | 9 | 4.8 | 11.3 | 0.08 | 0.13 | 0.13 | 86 | 1013.4 |
| 20260506140903 | 13 | 45 | 1.6 | 4.8 | 0.08 | 0.13 | 0.13 | 84 | 1013.6 |
| 20260506135902 | 14 | 141 | 3.2 | 4.8 | 0.05 | 0.08 | 0.08 | 83 | 1013.7 |
| 20260506134903 | 14 | 273 | 3.2 | 4.8 | 0.00 | 0.05 | 0.05 | 81 | 1013.8 |
| 20260506133903 | 14 | 263 | 3.2 | 11.3 | 0.00 | 0.23 | 0.05 | 81 | 1013.8 |
| 20260506133403 | 14 | 301 | 8.0 | 16.1 | 0.00 | 0.23 | 0.05 | 82 | 1013.9 |
| 20260506132403 | 14 | 239 | 9.7 | 16.1 | 0.00 | 0.23 | 0.05 | 81 | 1014.0 |
| 20260506131403 | 13 | 318 | 4.8 | 12.9 | 0.00 | 0.25 | 0.05 | 80 | 1014.1 |
| 20260506130903 | 14 | 324 | 6.4 | 12.9 | 0.00 | 0.25 | 0.05 | 79 | 1014.1 |
| 20260506125902 | 13 | 357 | 3.2 | 8.0 | 0.00 | 0.25 | 0.05 | 80 | 1014.1 |
| 20260506125403 | 13 | 14 | 8.0 | 14.5 | 0.00 | 0.25 | 0.05 | 80 | 1014.1 |
| 20260506124902 | 13 | 12 | 9.7 | 16.1 | 0.00 | 0.25 | 0.05 | 79 | 1014.1 |
| 20260506124403 | 13 | 33 | 4.8 | 14.5 | 0.00 | 0.25 | 0.05 | 80 | 1014.2 |
| 20260506123903 | 13 | 0 | 11.3 | 16.1 | 0.00 | 0.25 | 0.05 | 80 | 1014.2 |
| 20260506123403 | 13 | 347 | 12.9 | 19.3 | 0.00 | 0.25 | 0.05 | 80 | 1014.2 |
| 20260506122903 | 13 | 324 | 4.8 | 16.1 | 0.00 | 0.25 | 0.05 | 81 | 1014.2 |
| 20260506122403 | 13 | 343 | 14.5 | 20.9 | 0.00 | 0.25 | 0.05 | 81 | 1014.3 |
| 20260506121403 | 13 | 343 | 11.3 | 20.9 | 0.00 | 0.25 | 0.05 | 81 | 1014.3 |
| 20260506120903 | 13 | 302 | 14.5 | 20.9 | 0.00 | 0.25 | 0.05 | 81 | 1014.3 |
| 20260506120403 | 13 | 340 | 16.1 | 25.7 | 0.00 | 0.25 | 0.05 | 79 | 1014.3 |
| 20260506115903 | 14 | 334 | 14.5 | 22.5 | 0.00 | 0.28 | 0.05 | 77 | 1014.3 |
| 20260506115403 | 15 | 312 | 3.2 | 12.9 | 0.00 | 0.28 | 0.05 | 72 | 1014.3 |
| 20260506114902 | 15 | 0 | 8.0 | 12.9 | 0.00 | 0.28 | 0.05 | 69 | 1014.3 |
| 20260506114403 | 15 | 298 | 1.6 | 4.8 | 0.00 | 0.28 | 0.05 | 69 | 1014.3 |
| 20260506112903 | 15 | 63 | 4.8 | 12.9 | 0.00 | 0.28 | 0.05 | 71 | 1014.3 |
| 20260506111903 | 14 | 322 | 6.4 | 9.7 | 0.00 | 0.28 | 0.05 | 72 | 1014.4 |
| 20260506111403 | 14 | 355 | 1.6 | 9.7 | 0.00 | 0.28 | 0.05 | 75 | 1014.4 |
| 20260506110903 | 13 | 267 | 0.0 | 9.7 | 0.00 | 0.28 | 0.05 | 76 | 1014.4 |
| 20260506105903 | 13 | 291 | 8.0 | 12.9 | 0.00 | 0.28 | 0.05 | 75 | 1014.5 |
| 20260506105403 | 13 | 279 | 8.0 | 14.5 | 0.00 | 0.28 | 0.05 | 77 | 1014.5 |
| 20260506104903 | 13 | 294 | 1.6 | 12.9 | 0.00 | 0.28 | 0.05 | 77 | 1014.5 |
| 20260506104403 | 13 | 311 | 3.2 | 12.9 | 0.00 | 0.28 | 0.05 | 78 | 1014.5 |
| 20260506103903 | 13 | 318 | 4.8 | 12.9 | 0.00 | 0.28 | 0.05 | 79 | 1014.6 |
| 20260506103403 | 13 | 331 | 8.0 | 16.1 | 0.00 | 0.28 | 0.05 | 79 | 1014.6 |
| 20260506102904 | 13 | 299 | 3.2 | 11.3 | 0.00 | 0.30 | 0.05 | 81 | 1014.5 |
| 20260506102403 | 13 | 318 | 1.6 | 12.9 | 0.00 | 0.30 | 0.05 | 82 | 1014.5 |
| 20260506101903 | 13 | 281 | 3.2 | 9.7 | 0.00 | 0.30 | 0.05 | 81 | 1014.6 |
| 20260506101403 | 13 | 292 | 6.4 | 12.9 | 0.00 | 0.30 | 0.05 | 81 | 1014.6 |
| 20260506100903 | 13 | 264 | 6.4 | 14.5 | 0.00 | 0.30 | 0.05 | 82 | 1014.6 |
| 20260506100403 | 12 | 260 | 1.6 | 8.0 | 0.00 | 0.33 | 0.05 | 83 | 1014.6 |
| 20260506095903 | 12 | 307 | 3.2 | 11.3 | 0.00 | 0.33 | 0.05 | 84 | 1014.6 |
| 20260506095403 | 12 | 235 | 6.4 | 11.3 | 0.00 | 0.33 | 0.05 | 84 | 1014.6 |
| 20260506094903 | 12 | 267 | 4.8 | 12.9 | 0.00 | 0.33 | 0.05 | 84 | 1014.6 |
| 20260506094403 | 12 | 301 | 0.0 | 4.8 | 0.00 | 0.33 | 0.05 | 85 | 1014.6 |
| 20260506093903 | 12 | 299 | 1.6 | 8.0 | 0.00 | 0.33 | 0.05 | 85 | 1014.6 |
| 20260506092906 | 12 | 285 | 0.0 | 4.8 | 0.00 | 0.33 | 0.05 | 87 | 1014.6 |
| 20260506091903 | 12 | 284 | 1.6 | 4.8 | 0.00 | 0.33 | 0.05 | 88 | 1014.6 |
| 20260506091403 | 12 | 265 | 0.0 | 3.2 | 0.00 | 0.33 | 0.05 | 89 | 1014.6 |
| 20260506090903 | 11 | 264 | 1.6 | 4.8 | 0.00 | 0.33 | 0.05 | 89 | 1014.6 |
| 20260506090403 | 11 | 273 | 3.2 | 4.8 | 0.00 | 0.33 | 0.05 | 90 | 1014.6 |
| 20260506085904 | 11 | 252 | 1.6 | 4.8 | 0.00 | 0.33 | 0.05 | 90 | 1014.6 |
| 20260506085403 | 11 | 249 | 0.0 | 3.2 | 0.00 | 0.33 | 0.05 | 90 | 1014.6 |
| 20260506084903 | 11 | 248 | 1.6 | 4.8 | 0.00 | 0.33 | 0.05 | 91 | 1014.6 |
| 20260506084403 | 11 | 248 | 0.0 | 0.0 | 0.00 | 0.33 | 0.05 | 91 | 1014.7 |
| 20260506083402 | 10 | 248 | 1.6 | 4.8 | 0.00 | 0.33 | 0.05 | 91 | 1014.7 |
| 20260506082903 | 10 | 249 | 0.0 | 9.7 | 0.00 | 0.33 | 0.05 | 92 | 1014.7 |
| 20260506080903 | 10 | 241 | 3.2 | 4.8 | 0.00 | 0.33 | 0.05 | 95 | 1014.8 |
| 20260506073403 | 10 | 275 | 0.0 | 3.2 | 0.00 | 0.33 | 0.05 | 97 | 1014.6 |
| 20260506072903 | 10 | 275 | 0.0 | 0.0 | 0.00 | 0.33 | 0.05 | 98 | 1014.6 |
| 20260506071903 | 9 | 275 | 3.2 | 4.8 | 0.00 | 0.33 | 0.05 | 98 | 1014.6 |
| 20260506071403 | 9 | 275 | 3.2 | 4.8 | 0.00 | 0.33 | 0.05 | 98 | 1014.6 |
| 20260506070903 | 9 | 275 | 0.0 | 3.2 | 0.00 | 0.33 | 0.05 | 98 | 1014.6 |
| 20260506070403 | 9 | 275 | 0.0 | 1.6 | 0.00 | 0.33 | 0.05 | 98 | 1014.6 |
| 20260506062403 | 8 | 178 | 8.0 | 11.3 | 0.00 | 0.33 | 0.05 | 98 | 1014.3 |
| 20260506061903 | 8 | 188 | 3.2 | 8.0 | 0.00 | 0.33 | 0.05 | 98 | 1014.3 |
| 20260506061403 | 8 | 188 | 1.6 | 11.3 | 0.00 | 0.33 | 0.05 | 98 | 1014.4 |
| 20260506060403 | 8 | 183 | 3.2 | 8.0 | 0.00 | 0.33 | 0.05 | 98 | 1014.4 |
| 20260506051403 | 8 | 182 | 1.6 | 3.2 | 0.00 | 0.33 | 0.05 | 99 | 1014.1 |
| 20260506050903 | 8 | 181 | 3.2 | 8.0 | 0.00 | 0.33 | 0.05 | 99 | 1014.0 |
| 20260506050403 | 8 | 184 | 4.8 | 8.0 | 0.00 | 0.33 | 0.05 | 99 | 1014.0 |
| 20260506044903 | 8 | 177 | 8.0 | 11.3 | 0.00 | 0.33 | 0.05 | 99 | 1014.0 |
| 20260506044403 | 8 | 176 | 8.0 | 11.3 | 0.00 | 0.33 | 0.05 | 99 | 1014.0 |
| 20260506043903 | 8 | 182 | 8.0 | 11.3 | 0.00 | 0.33 | 0.05 | 99 | 1014.1 |
| 20260506043403 | 8 | 173 | 4.8 | 9.7 | 0.00 | 0.33 | 0.05 | 99 | 1014.1 |
| 20260506042903 | 8 | 176 | 8.0 | 9.7 | 0.00 | 0.33 | 0.05 | 99 | 1014.1 |
| 20260506042403 | 8 | 181 | 9.7 | 12.9 | 0.00 | 0.33 | 0.05 | 99 | 1014.1 |
| 20260506041403 | 8 | 181 | 8.0 | 11.3 | 0.00 | 0.33 | 0.05 | 99 | 1014.2 |
| 20260506040903 | 8 | 190 | 6.4 | 9.7 | 0.00 | 0.33 | 0.05 | 99 | 1014.2 |
| 20260506040403 | 8 | 188 | 3.2 | 4.8 | 0.00 | 0.33 | 0.05 | 99 | 1014.2 |
| 20260506035403 | 8 | 190 | 3.2 | 4.8 | 0.00 | 0.33 | 0.05 | 99 | 1014.3 |
| 20260506034903 | 8 | 190 | 3.2 | 8.0 | 0.00 | 0.33 | 0.05 | 99 | 1014.3 |
| 20260506034403 | 8 | 190 | 4.8 | 8.0 | 0.00 | 0.33 | 0.05 | 99 | 1014.3 |
| 20260506033903 | 8 | 190 | 3.2 | 11.3 | 0.00 | 0.33 | 0.05 | 99 | 1014.3 |
| 20260506033403 | 8 | 188 | 4.8 | 9.7 | 0.00 | 0.33 | 0.05 | 99 | 1014.3 |
| 20260506030903 | 8 | 174 | 4.8 | 8.0 | 0.00 | 0.33 | 0.05 | 99 | 1014.4 |
| 20260506030403 | 8 | 174 | 4.8 | 8.0 | 0.00 | 0.33 | 0.05 | 98 | 1014.4 |
| 20260506025903 | 8 | 174 | 1.6 | 8.0 | 0.00 | 0.33 | 0.05 | 98 | 1014.4 |
| 20260506025403 | 8 | 174 | 0.0 | 4.8 | 0.00 | 0.33 | 0.05 | 98 | 1014.4 |
| 20260506024903 | 8 | 174 | 3.2 | 8.0 | 0.00 | 0.33 | 0.05 | 98 | 1014.4 |
| 20260506023903 | 8 | 179 | 6.4 | 9.7 | 0.00 | 0.33 | 0.05 | 98 | 1014.4 |
| 20260506023403 | 8 | 177 | 6.4 | 11.3 | 0.00 | 0.33 | 0.05 | 98 | 1014.4 |
| 20260506022903 | 8 | 167 | 8.0 | 11.3 | 0.00 | 0.33 | 0.05 | 98 | 1014.4 |
| 20260506022403 | 8 | 200 | 6.4 | 14.5 | 0.00 | 0.33 | 0.05 | 98 | 1014.4 |
| 20260506021903 | 9 | 187 | 8.0 | 11.3 | 0.00 | 0.33 | 0.05 | 98 | 1014.4 |
| 20260506020903 | 9 | 197 | 3.2 | 8.0 | 0.00 | 0.33 | 0.05 | 98 | 1014.4 |
| 20260506020403 | 9 | 197 | 6.4 | 9.7 | 0.00 | 0.33 | 0.05 | 98 | 1014.4 |
| 20260506015903 | 9 | 214 | 4.8 | 8.0 | 0.00 | 0.33 | 0.05 | 98 | 1014.4 |
| 20260506015403 | 9 | 215 | 4.8 | 8.0 | 0.00 | 0.33 | 0.05 | 98 | 1014.4 |
| 20260506014403 | 9 | 217 | 3.2 | 8.0 | 0.00 | 0.33 | 0.05 | 98 | 1014.5 |
| 20260506013903 | 9 | 219 | 4.8 | 8.0 | 0.00 | 0.33 | 0.05 | 98 | 1014.7 |
| 20260506013403 | 9 | 238 | 3.2 | 4.8 | 0.00 | 0.33 | 0.05 | 98 | 1014.7 |
| 20260506012903 | 9 | 230 | 1.6 | 4.8 | 0.00 | 0.33 | 0.05 | 98 | 1014.6 |
| 20260506011903 | 9 | 230 | 4.8 | 9.7 | 0.00 | 0.33 | 0.05 | 98 | 1014.8 |
| 20260506011403 | 9 | 231 | 1.6 | 4.8 | 0.00 | 0.33 | 0.05 | 98 | 1014.8 |
| 20260506010903 | 9 | 231 | 1.6 | 4.8 | 0.00 | 0.33 | 0.05 | 98 | 1014.8 |
| 20260506010403 | 9 | 231 | 4.8 | 4.8 | 0.03 | 0.33 | 0.05 | 98 | 1014.9 |
| 20260506005903 | 9 | 246 | 4.8 | 4.8 | 0.03 | 0.33 | 0.05 | 98 | 1015.0 |
| 20260506004903 | 10 | 246 | 0.0 | 4.8 | 0.03 | 0.33 | 0.05 | 98 | 1015.0 |
| 20260506004403 | 10 | 247 | 0.0 | 3.2 | 0.03 | 0.33 | 0.05 | 98 | 1015.1 |
| 20260506003903 | 10 | 247 | 0.0 | 1.6 | 0.03 | 0.33 | 0.05 | 98 | 1015.2 |
| 20260506003403 | 10 | 247 | 0.0 | 1.6 | 0.03 | 0.33 | 0.05 | 98 | 1015.2 |
| 20260506002903 | 10 | 246 | 0.0 | 3.2 | 0.03 | 0.33 | 0.05 | 98 | 1015.2 |
| 20260506002403 | 10 | 246 | 1.6 | 4.8 | 0.03 | 0.33 | 0.05 | 98 | 1015.3 |
| 20260506001403 | 10 | 211 | 3.2 | 4.8 | 0.03 | 0.33 | 0.05 | 98 | 1015.3 |
| 20260506000903 | 10 | 201 | 0.0 | 0.0 | 0.03 | 0.33 | 0.05 | 98 | 1015.3 |
| 20260506000403 | 10 | 201 | 1.6 | 4.8 | 0.00 | 0.30 | 0.03 | 98 | 1015.3 |
| 20260505235903 | 10 | 198 | 0.0 | 0.0 | 0.03 | 0.30 | 0.03 | 98 | 1015.3 |
| 20260505235403 | 10 | 198 | 0.0 | 0.0 | 0.03 | 0.30 | 0.03 | 98 | 1015.3 |
| 20260505234903 | 10 | 198 | 1.6 | 4.8 | 0.03 | 0.30 | 0.03 | 98 | 1015.4 |
| 20260505234403 | 10 | 198 | 3.2 | 8.0 | 0.03 | 0.30 | 0.03 | 98 | 1015.4 |
| 20260505233903 | 10 | 199 | 4.8 | 11.3 | 0.03 | 0.30 | 0.03 | 98 | 1015.4 |
| 20260505232903 | 10 | 183 | 4.8 | 9.7 | 0.03 | 0.30 | 0.03 | 98 | 1015.4 |
| 20260505232403 | 10 | 196 | 1.6 | 4.8 | 0.03 | 0.30 | 0.03 | 98 | 1015.4 |
| 20260505231903 | 10 | 198 | 4.8 | 9.7 | 0.03 | 0.30 | 0.03 | 98 | 1015.4 |
| 20260505231403 | 10 | 203 | 8.0 | 11.3 | 0.03 | 0.30 | 0.03 | 98 | 1015.4 |
| 20260505230403 | 10 | 187 | 4.8 | 8.0 | 0.03 | 0.30 | 0.03 | 98 | 1015.4 |
| 20260505225903 | 10 | 187 | 8.0 | 9.7 | 0.00 | 0.28 | 0.00 | 98 | 1015.5 |
| 20260505225403 | 10 | 188 | 6.4 | 9.7 | 0.00 | 0.28 | 0.00 | 98 | 1015.6 |
| 20260505224903 | 10 | 188 | 1.6 | 8.0 | 0.00 | 0.28 | 0.00 | 98 | 1015.6 |
| 20260505223403 | 10 | 188 | 8.0 | 9.7 | 0.00 | 0.28 | 0.00 | 98 | 1015.6 |
| 20260505222403 | 10 | 163 | 8.0 | 11.3 | 0.00 | 0.28 | 0.00 | 97 | 1015.5 |
| 20260505220903 | 10 | 171 | 8.0 | 11.3 | 0.00 | 0.28 | 0.00 | 97 | 1015.6 |
| 20260505220403 | 10 | 167 | 8.0 | 11.3 | 0.00 | 0.28 | 0.00 | 97 | 1015.6 |